Notices

What's New in latest Release from April 7th, 2021:

- Updated Glossary, including Speed of Maximum Gust, and Total Hourly Precipitation

- Updated national and regional climate services offices contacts and prices information

- Addition of station inventory lists for 1981-2010, 1971-2000, and 1961-1990 Normals.

If you haven't already, please take our survey and provide feedback about our website: https://eccc.sondage-survey.ca/f/LanguageSelection.aspx?s=442ca660-fcf1-47c0-95a9-59707d6fd709

Hourly Data Report for March 03, 2018

MIRAMICHI RCS
NEW BRUNSWICK

47°00'34.000" N
65°27'54.000" W
33.00 m
8100989
71744
ACQ

Download Data

Hourly Data (March 2018)
Hourly Data Report for March 3, 2018
TIME
LST
Temp Definition
°C
Dew Point Definition
°C
Rel Hum Definition
%
Precip. Amount Definition
mm

Wind Dir Definition
10's deg

Wind Spd Definition
km/h
Visibility Definition
km
Stn Press Definition
kPa
Hmdx Definition


Wind Chill Definition


Weather Definition


00:00 1.1 0.3 95 0.2 6 31   101.29     LegendNANA
01:00 1.1 0.2 94 0.0 6 34   101.33     LegendNANA
02:00 1.0 0.3 95 0.2 6 31   101.38     LegendNANA
03:00 1.2 -0.3 90 0.0 5 27   101.38     LegendNANA
04:00 0.8 -0.5 91 0.0 5 23   101.42     LegendNANA
05:00 0.6 -1.1 89 0.0 5 25   101.47     LegendNANA
06:00 0.7 -1.6 85 0.0 4 23   101.51     LegendNANA
07:00 0.4 -1.7 86 0.0 4 22   101.58     LegendNANA
08:00 0.8 -2.2 80 0.0 4 22   101.66     LegendNANA
09:00 0.8 -1.6 84 0.0 5 26   101.71     LegendNANA
10:00 1.7 -1.0 82 0.2 5 24   101.75     LegendNANA
11:00 2.5 -1.4 76 0.0 5 29   101.75     LegendNANA
12:00 2.6 -1.0 77 0.0 4 26   101.74     LegendNANA
13:00 2.2 -1.0 80 0.0 5 27   101.78     LegendNANA
14:00 2.4 -0.9 79 0.0 4 23   101.77     LegendNANA
15:00 2.4 -1.4 76 0.0 6 27   101.81     LegendNANA
16:00 1.6 -1.4 80 0.0 6 34   101.82     LegendNANA
17:00 1.0 -1.4 84 0.0 6 26   101.85     LegendNANA
18:00 1.3 -1.6 81 0.0 5 26   101.90     LegendNANA
19:00 1.2 -1.6 82 0.0 6 27   101.93     LegendNANA
20:00 1.1 -1.8 81 0.0 5 23   101.96     LegendNANA
21:00 0.6 -2.3 81 0.0 4 20   101.95     LegendNANA
22:00 0.2 -2.6 81 0.0 3 18   101.92     LegendNANA
23:00 0.1 -2.8 81 0.0 3 20   101.86     LegendNANA

Notes on Data Quality.

Legend

  • E = Estimated
  • M = Missing
  • NA = Not Available*
  • [empty] = Indicates an unobserved value
Date modified: